EW7244 Weather Reports


time (UTC)temp
C
wind
direction
speed
KPH
gust
KPH
rain 1hr
cm
rain 24hr
cm
rain mn
cm
humidity
%
barometer
mb
20260505184545 11 126 0.0 0.0 0.08 0.53 0.53 94 1009.4
20260505183056 11 126 0.0 0.0 0.08 0.53 0.53 94 1009.3
20260505181551 11 126 0.0 0.0 0.05 0.51 0.51 94 1009.2
20260505180048 11 126 0.0 0.0 0.03 0.46 0.46 94 1009.1
20260505174558 11 126 0.0 0.0 0.03 0.46 0.46 94 1009.1
20260505173102 11 126 0.0 0.0 0.05 0.46 0.46 93 1009.1
20260505171625 11 126 0.0 0.0 0.05 0.46 0.46 93 1009.0
20260505170017 11 126 0.0 0.0 0.03 0.43 0.43 93 1009.0
20260505164604 11 126 0.0 0.0 0.03 0.43 0.43 92 1009.1
20260505163046 11 126 0.0 0.0 0.00 0.43 0.43 92 1009.2
20260505161525 11 126 0.0 0.0 0.00 0.43 0.43 92 1009.3
20260505153031 11 126 0.0 0.0 0.00 0.43 0.43 92 1009.4
20260505151516 11 126 0.0 0.0 0.00 0.43 0.43 92 1009.4
20260505150126 11 125 0.0 0.0 0.00 0.43 0.43 92 1009.4
20260505124506 12 98 0.0 0.0 0.03 0.36 0.36 92 1009.9
20260505123059 12 98 0.0 0.0 0.05 0.36 0.36 91 1009.8
20260505121624 12 98 0.0 0.0 0.08 0.36 0.36 89 1009.8
20260505120048 12 86 0.0 0.0 0.13 0.36 0.36 89 1009.9
20260505114556 12 85 0.0 0.0 0.15 0.33 0.33 88 1009.8
20260505113056 12 288 0.0 0.0 0.15 0.33 0.33 88 1010.0
20260505111507 12 300 0.0 0.0 0.18 0.28 0.28 89 1010.1
20260505101520 12 284 0.0 0.0 0.05 0.10 0.10 88 1010.2
20260505100035 12 317 0.0 0.0 0.05 0.08 0.08 88 1010.2
20260505094514 12 125 0.0 0.0 0.08 0.08 0.08 90 1010.0
20260505093058 13 126 0.0 0.0 0.05 0.05 0.05 88 1010.1
20260505091612 13 126 0.0 0.0 0.05 0.05 0.05 86 1010.1
20260505090014 13 132 0.0 0.0 0.05 0.05 0.05 83 1009.9
20260505084510 14 130 0.0 0.0 0.00 0.00 0.00 81 1009.9
20260505083101 14 130 0.0 0.0 0.00 0.00 0.00 79 1009.8
20260505081558 13 130 0.0 0.0 0.00 0.00 0.00 79 1009.8
20260505080029 13 130 0.0 0.0 0.00 0.00 0.00 78 1009.7
20260505074557 13 130 0.0 0.0 0.00 0.00 0.00 79 1009.7
20260505073100 13 130 0.0 0.0 0.00 0.00 0.00 78 1009.5
20260505071550 13 130 0.0 0.0 0.00 0.00 0.00 81 1009.5
20260505070049 13 130 0.0 0.0 0.00 0.00 0.00 83 1009.7
20260505064609 12 130 0.0 0.0 0.00 0.00 0.00 86 1009.7
20260505063051 12 130 0.0 0.0 0.00 0.00 0.00 87 1009.6
20260505061555 12 130 0.0 0.0 0.00 0.00 0.00 86 1009.6
20260505060051 12 130 0.0 0.0 0.00 0.00 0.00 87 1009.5
20260505054618 12 259 0.0 0.0 0.00 0.00 0.00 87 1009.3
20260505053051 11 259 0.0 0.0 0.00 0.00 0.00 87 1009.2
20260505051555 11 259 0.0 0.0 0.00 0.00 0.00 86 1009.3
20260505041610 12 259 0.0 0.0 0.00 0.00 0.00 84 1009.5
20260505040046 11 259 0.0 0.0 0.00 0.00 0.00 84 1009.5
20260505034551 11 259 0.0 0.0 0.00 0.00 0.00 84 1009.6
20260505033027 12 259 0.0 0.0 0.00 0.00 0.00 82 1009.6
20260505031555 12 259 0.0 0.0 0.00 0.00 0.00 82 1009.7
20260505030108 12 259 0.0 0.0 0.00 0.00 0.00 82 1009.8
20260505024601 12 259 0.0 0.0 0.00 0.00 0.00 82 1010.0
20260505023100 12 259 0.0 0.0 0.00 0.00 0.00 82 1009.9
20260505021556 12 259 0.0 0.0 0.00 0.00 0.00 82 1010.1
20260505014548 12 259 0.0 0.0 0.00 0.00 0.00 81 1010.2
20260505013037 12 259 0.0 0.0 0.00 0.00 0.00 81 1010.4
20260505011554 12 259 0.0 0.0 0.00 0.00 0.00 81 1010.6
20260505010104 12 259 0.0 0.0 0.00 0.00 0.00 80 1010.7
20260505004554 12 259 0.0 0.0 0.00 0.00 0.00 79 1010.9
20260505003049 12 259 0.0 0.0 0.00 0.00 0.00 80 1011.0
20260505001540 12 259 0.0 0.0 0.00 0.00 0.00 78 1011.1
20260505000053 13 259 0.0 0.0 0.00 0.00 0.00 78 1011.2
20260504234526 13 260 0.0 0.0 0.00 0.00 0.00 77 1011.4
20260504233014 13 260 0.0 0.0 0.00 0.00 0.00 77 1011.5
20260504231519 13 260 0.0 0.0 0.00 0.00 0.00 77 1011.6
20260504230111 13 259 0.0 0.0 0.00 0.00 0.00 76 1011.7
20260504224527 13 259 0.0 0.0 0.00 0.00 0.00 76 1011.7
20260504223050 13 259 0.0 0.0 0.00 0.00 0.00 75 1011.8
20260504221600 14 259 0.0 0.0 0.00 0.00 0.00 75 1011.9
20260504220100 14 261 0.0 0.0 0.00 0.00 0.00 74 1012.0
20260504214550 14 262 0.0 0.0 0.00 0.00 0.00 73 1012.0
20260504213044 15 262 0.0 0.0 0.00 0.00 0.00 72 1012.1
20260504211543 15 262 0.0 0.0 0.00 0.00 0.00 72 1012.1
20260504204551 15 314 0.0 0.0 0.00 0.00 0.00 72 1012.0
20260504203046 15 314 0.0 0.0 0.00 0.00 0.00 72 1012.0
20260504201547 15 314 0.0 1.6 0.00 0.00 0.00 71 1012.0
20260504194550 16 315 0.0 0.0 0.00 0.00 0.00 69 1011.9
20260504193045 16 315 0.0 0.0 0.00 0.00 0.00 67 1011.7
20260504191609 16 316 0.0 0.0 0.00 0.00 0.00 66 1011.6
20260504190050 16 263 0.0 0.0 0.00 0.00 0.00 66 1011.4